Regional Weather Roundup
Issued by NWS

Home | Current Version | Previous Version | Text Only | Print | Product List | Glossary On
Versions: 1 2 3 4 5 6 7 8 9 10 11 12 13 14 15 16 17 18 19 20 21 22 23 24 25 26 27 28 29 30 31 32 33 34 35 36 37 38 39 40 41 42 43 44 45 46 47 48 49 50
000
ASUS44 KOUN 110810
RWROK

WEATHER ROUNDUP FOR OKLAHOMA
NATIONAL WEATHER SERVICE NORMAN OK
200 AM CST MON DEC 11 2017

NOTE: "FAIR" INDICATES FEW OR NO CLOUDS BELOW 12,000 FEET WITH NO
      SIGNIFICANT WEATHER AND/OR OBSTRUCTIONS TO VISIBILITY.

OKZ001>007-009>012-014-015-017-110900-
NORTHWEST OKLAHOMA AND THE PANHANDLE

CITY           SKY/WX    TMP DP  RH WIND       PRES   REMARKS
GAGE           CLOUDY    27   8  44 W6        30.25F WCI  20
GUYMON         CLOUDY    31   8  38 W8        30.27F WCI  23
ENID/WOODRING  CLEAR     45  18  33 W3        30.19F
$$

OKZ016-021>023-033>039-044-045-110900-
SOUTHWEST OKLAHOMA

CITY           SKY/WX    TMP DP  RH WIND       PRES   REMARKS
LAWTON/REGL    PTCLDY    31  25  78 CALM      30.25F
LAWTON/FT SILL CLEAR     38  23  53 CALM      30.24S
FREDERICK      CLEAR     44  12  27 VRB3      30.24S
CLINTON        CLEAR     41   9  26 W9        30.26F
HOBART         CLOUDY    33  14  45 NW8       30.26F WCI  26
ALTUS AFB      CLOUDY    29  15  55 N3        30.26S
$$

OKZ018>020-024>031-110900-
CENTRAL OKLAHOMA

CITY           SKY/WX    TMP DP  RH WIND       PRES   REMARKS
OKLAHOMA CITY  CLEAR     37  16  42 CALM      30.22F
OKC/WILEY POST CLEAR     33  24  69 SW6       30.23F WCI  28
OKC/TINKER AFB CLEAR     51  13  22 W5        30.21F
STILLWATER     CLEAR     41  19  41 W5        30.20F
GUTHRIE        CLEAR     40  18  41 S3        30.21F
$$

OKZ008-013-054>072-110900-
NORTHEAST OKLAHOMA

CITY           SKY/WX    TMP DP  RH WIND       PRES   REMARKS
TULSA          PTCLDY    45  24  43 S5        30.19F
TULSA/JONES    CLEAR     32  25  75 CALM      30.20F
PONCA CITY     CLEAR     33  22  63 CALM      30.19F
BARTLESVILLE   CLEAR     39  21  48 E3        30.18F
MUSKOGEE       CLEAR     34  23  64 S5        30.22F WCI  30
$$

OKZ032-040>043-046>053-073>077-110900-
SOUTH CENTRAL/SOUTHEAST OKLAHOMA

CITY           SKY/WX    TMP DP  RH WIND       PRES   REMARKS
ARDMORE/DWNTWN CLEAR     36  19  51 CALM      30.26R
MCALESTER      PTCLDY    34  24  67 CALM      30.22F
$$





USA.gov is the U.S. government's official web portal to all federal, state and local government web resources and services.